Location: Coll
(42.4728°N, 0.7714°E)
Time: 07:25:11
(UTC+00:00)

NOSS 3-2 (A) - Pass Details

Date: 23 October 2020
Orbit: 792 x 1416 km, 63.4° (Epoch: 22 November)

Event Time Altitude Azimuth Distance (km) Brightness Sun altitude
Exits shadow 04:35:10 37° 266° (W) 1,360 3.7 -19.9°
Maximum altitude 04:37:02 49° 314° (NW) 1,168 3.6 -19.6°
Drops below altitude 10° 04:43:18 10° 29° (NNE) 2,813 6.3 -18.4°
Sets 04:46:14 0° 34° (NE) 3,870 7.1 -17.9°
